Regional Weather Roundup
Issued by NWS Kansas City/Pleasant Hill, MO

Home | Current Version | Previous Version | Text Only | Print | Product List | Glossary Off
Versions: 1 2 3 4 5 6 7 8 9 10 11 12 13 14 15 16 17 18 19 20 21 22 23 24 25 26 27 28 29 30 31 32 33 34 35 36 37 38 39 40 41 42 43 44 45 46 47 48 49 50

000
ASUS43 KEAX 252211
RWREAX

WEATHER ROUNDUP FOR EASTERN KANSAS AND NORTHWEST MISSOURI
NATIONAL WEATHER SERVICE KANSAS CITY/PLEASANT HILL MO
400 PM CST TUE NOV 25 2014

KSZ040-057-103>105-MOZ028-029-037-043-252300-
...KANSAS CITY METROPOLITAN AREA...

CITY           SKY/WX    TMP DP  RH WIND       PRES   REMARKS
K.C. INTL      PTCLDY    40  18  41 S10       30.09F WCI  33
K.C. DOWNTOWN  CLEAR     43  16  33 S8        30.11F
LEES SUMMIT    CLEAR     42  14  32 S3        30.11F
OLATHE - IXD   CLEAR     42  18  37 S10       30.10F
OLATHE - OJC   CLEAR     42  17  36 S9        30.10F
LAWRENCE       PTCLDY    43  20  39 S7        30.09F

$$

MOZ001>008-011>017-020>025-030>033-038>040-044>046-053-054-252300-
...NORTHERN AND CENTRAL MISSOURI...

CITY           SKY/WX    TMP DP  RH WIND       PRES   REMARKS
ST. JOSEPH     CLEAR     40  19  43 S9        30.08F WCI  34
MOSBY          CLEAR     41  14  33 S5        30.11F
WARRENSBURG    CLEAR     41  10  28 SW7       30.13S
WHITEMAN AFB   PTCLDY    41  13  32 SW8       30.12F
CLINTON        CLEAR     41  19  42 CALM      30.15F
SEDALIA        CLEAR     40  16  37 SW8       30.14F WCI  34
WARSAW         NOT AVBL
MARSHALL       CLEAR     41  18  38 SW7       30.14F
CHILLICOTHE      N/A     39  15  37 S7        30.12F WCI  34
MOBERLY        CLEAR     37  12  35 W8        30.14F WCI  31
KIRKSVILLE     CLEAR     35  17  47 SW7       30.12F WCI  29

$$

MOZ041-047>049-056>058-063>065-088>090-097-252300-
...EASTERN AND SOUTHERN MISSOURI...

CITY           SKY/WX    TMP DP  RH WIND       PRES   REMARKS
ST. LOUIS INTL PTCLDY    41  22  46 W7        30.15S
SPIRIT OF STL  CLEAR     39  22  50 W7        30.15S WCI  34
COLUMBIA       CLEAR     39  15  37 SW7       30.14F WCI  34
JEFFERSON CITY CLEAR     41  15  35 W6        30.15F
MEXICO         CLEAR     39  23  52 W7        30.14S WCI  34
ROLLA          CLEAR     40  18  41 W6        30.11S
LEBANON        CLEAR     43  14  31 W7        30.13S
OSAGE BEACH    CLEAR     43  14  31 NW3       30.14S
SPRINGFIELD    CLEAR     43  15  32 W6        30.13F
BRANSON        PTCLDY    46  16  29 W5        30.14F
NEVADA         CLEAR     43  14  31 SW7       30.14F
JOPLIN         CLEAR     44  19  36 W7        30.15F
WEST PLAINS    CLEAR     44  16  32 NW6       30.13S

$$

IAZ060-094-KSZ022-034>040-054-083-096-NEZ052-066-093-252300-
...KANSAS...SOUTHEAST NEBRASKA AND IOWA...

CITY           SKY/WX    TMP DP  RH WIND       PRES   REMARKS
TOPEKA         PTCLDY    46  23  40 S7        30.08F
MANHATTAN      SUNNY     49  24  37 SW12      30.02F
EMPORIA        SUNNY     47  22  37 S13       30.07F
CHANUTE        SUNNY     46  20  35 S8        30.12F
WICHITA        PTSUNNY   49  23  36 S13       30.06F
OMAHA          MOCLDY    42  24  49 SE14      29.98F WCI  35
LINCOLN        CLOUDY    47  23  38 SW12      29.96F
FALLS CITY     PTCLDY    44  23  43 S10       30.03F
LAMONI         CLEAR     36  15  42 SW12      30.06F WCI  28
DES MOINES     PTCLDY    36   8  31 S7        30.06F WCI  30

$$




USA.gov is the U.S. government's official web portal to all federal, state and local government web resources and services.